Wind_Speed
15 15 14 13 11 10 9 9 7 7 7 6 6 6 6 7 8 8 9 9 10 11 13 14 15 15 16 16 15 16 17 18 19 19 19 19 20 21 22 22 23 25
16 15 14 13 12 11 10 10 9 8 8 7 7 7 7 8 8 9 9 10 11 11 12 13 14 15 15 16 16 16 16 17 18 19 19 20 20 21 23 22 22 24
16 15 14 14 13 12 11 11 10 9 8 8 8 8 8 8 9 9 10 10 11 13 13 13 14 15 15 16 16 17 17 17 18 18 19 21 21 21 22 22 22 22
17 16 16 14 13 12 12 11 11 10 9 8 8 8 8 9 9 10 11 12 13 14 15 15 16 16 16 16 16 16 17 18 19 18 20 21 21 22 22 22 22 22
18 17 16 16 14 13 13 12 11 10 9 9 9 9 9 10 11 11 12 12 13 14 15 15 16 16 16 16 16 17 18 19 19 19 19 21 21 22 23 22 22 23
19 18 16 16 15 14 13 12 11 10 10 10 10 11 11 11 12 12 12 13 13 14 15 15 16 16 16 16 16 17 18 19 19 19 19 20 21 22 22 23 23 23
19 18 17 15 15 14 13 12 11 11 11 11 11 12 12 12 13 13 14 14 15 15 15 16 16 16 17 17 17 18 19 20 20 20 20 20 21 22 22 23 24 24
20 18 17 16 15 14 13 12 11 12 12 12 13 13 13 14 14 15 15 16 16 16 16 17 17 17 17 17 18 19 20 20 20 20 21 21 22 22 22 22 24 25
19 18 17 16 15 14 13 12 12 12 12 13 13 14 14 15 15 16 16 16 17 17 18 18 18 18 19 19 19 20 20 21 21 21 22 22 22 23 23 23 24 26
19 18 17 16 15 14 13 12 12 12 12 13 14 14 15 15 16 16 16 17 18 19 19 19 19 20 20 20 20 21 22 22 22 23 23 23 24 24 23 24 24 26
19 17 16 15 14 13 12 12 12 12 12 12 13 14 15 16 16 16 17 17 19 20 20 21 21 21 21 21 22 22 23 24 24 23 24 24 25 25 25 25 25 26
18 17 15 14 14 13 12 12 11 11 12 12 13 14 14 15 16 17 18 18 19 20 21 22 23 23 23 23 24 24 24 25 25 25 26 26 26 26 26 26 26 26
18 17 15 14 13 12 11 11 10 10 11 11 12 13 14 15 17 17 18 19 20 21 21 22 22 23 24 24 25 25 26 27 27 26 26 26 27 27 27 27 27 27
17 16 15 13 12 11 10 10 10 10 10 10 11 12 14 16 17 18 19 20 20 21 22 23 23 23 24 24 25 25 25 26 27 27 27 27 28 28 28 28 28 28
16 15 13 12 11 10 10 10 9 9 9 10 12 13 14 16 17 18 19 20 21 22 22 23 23 24 24 24 25 26 26 26 26 26 26 27 28 28 29 30 30 29
14 13 12 11 11 10 10 9 9 9 11 12 13 14 14 16 17 17 18 20 21 22 23 24 24 24 24 25 27 28 29 29 28 28 28 27 27 28 28 29 30 31
13 13 12 11 11 11 10 9 10 10 12 12 13 14 15 16 16 17 18 20 21 22 24 24 25 25 25 26 28 29 31 31 31 31 31 31 31 30 29 29 30 30
14 12 12 11 11 10 10 10 10 10 11 13 14 15 16 16 16 17 19 20 22 24 24 25 26 25 26 28 29 30 31 32 33 33 33 33 33 32 32 31 30 31
13 12 11 10 10 10 10 10 10 11 12 13 14 16 16 15 15 18 21 22 23 24 25 26 26 26 27 28 30 31 31 32 33 33 33 33 33 33 34 34 33 32
12 10 10 9 9 10 11 11 11 12 13 14 15 15 14 14 16 18 21 23 23 24 25 27 27 27 29 30 31 32 33 34 35 35 34 34 34 34 34 36 36 35
10 9 9 9 9 10 11 11 12 13 13 14 14 13 13 15 17 19 21 23 24 25 26 27 27 28 29 31 31 32 33 34 36 37 37 36 35 35 35 36 37 37
8 8 8 9 10 11 11 12 13 13 13 13 13 13 14 16 17 19 21 23 24 25 26 27 27 27 28 29 30 31 32 34 35 36 37 38 37 37 36 37 37 38
7 7 8 9 10 11 12 12 11 11 12 12 13 13 14 15 17 19 22 24 25 25 26 27 28 27 28 29 31 33 34 35 35 34 35 37 38 37 37 37 38 39
7 8 8 9 10 10 10 10 10 10 11 13 13 12 13 15 17 20 23 24 25 26 26 28 29 28 29 30 31 33 34 35 36 35 35 36 36 37 37 37 37 39
7 8 8 8 8 8 8 9 10 10 12 12 11 11 13 16 18 21 23 24 25 27 27 29 29 28 28 30 31 33 34 36 37 36 35 35 34 35 36 36 36 37
7 8 7 6 7 7 8 9 10 11 11 10 10 10 13 17 19 22 24 25 26 27 27 27 28 28 28 30 33 34 36 37 37 35 35 35 34 34 34 34 35 35
Wind_Direction
191 192 192 194 196 200 203 200 204 207 211 221 229 240 249 252 256 255 257 263 268 272 273 275 276 275 277 278 279 280 280 278 277 279 278 277 276 275 275 273 264 255
193 192 192 195 197 201 204 201 203 208 213 225 232 239 249 256 259 259 263 268 272 276 278 280 281 281 279 279 280 282 282 280 278 278 278 277 277 275 274 273 270 264
195 194 193 196 198 201 202 201 206 212 217 225 236 245 252 257 261 262 265 269 272 275 276 277 279 282 281 280 281 282 282 281 279 278 277 277 277 277 276 273 270 267
196 197 195 196 199 201 201 203 212 220 226 232 239 247 252 256 262 266 270 272 276 277 277 277 278 278 279 279 281 282 281 279 279 279 279 278 276 276 277 277 274 269
196 197 198 198 199 201 203 208 216 220 225 234 240 246 253 260 264 268 272 274 277 280 280 280 279 277 277 278 279 280 281 280 280 280 280 278 276 275 275 276 275 272
195 196 197 198 200 202 206 211 217 222 228 235 243 250 257 261 261 264 270 275 279 281 282 282 281 279 276 276 277 277 277 277 278 279 279 278 276 275 273 274 274 273
194 195 196 198 201 203 208 215 220 226 232 238 244 252 257 258 261 267 273 277 279 280 281 281 282 281 280 278 277 276 276 275 276 276 276 276 277 275 272 271 272 272
193 194 196 197 200 204 210 217 224 231 236 240 246 251 255 259 265 271 275 277 278 278 278 278 279 280 281 280 278 275 274 274 274 273 273 273 273 273 272 270 271 272
191 192 195 198 201 207 213 219 227 234 238 242 248 254 259 264 269 273 275 277 277 278 278 278 279 280 280 279 278 276 274 274 273 271 271 270 269 270 270 269 269 270
190 191 195 198 202 208 215 223 230 235 240 246 252 259 267 271 273 274 274 276 277 279 280 279 279 279 279 278 275 274 274 273 272 271 269 269 267 268 268 268 267 266
190 192 195 199 204 210 217 226 232 237 243 250 257 265 271 274 276 276 276 277 278 278 279 278 279 278 277 277 275 273 273 271 270 269 269 269 267 267 267 266 266 266
190 193 197 200 206 212 220 227 232 238 247 255 261 269 274 276 279 280 280 280 279 279 278 277 278 277 276 275 274 273 273 272 271 269 269 269 268 268 267 265 265 266
190 194 198 201 208 214 219 226 232 240 251 257 263 272 277 280 282 283 284 285 283 282 281 279 279 278 277 277 277 275 273 271 271 271 270 269 268 267 267 266 264 264
191 194 198 201 206 212 217 226 234 242 251 259 268 275 278 281 284 286 287 287 285 283 282 281 280 278 276 277 277 276 274 272 271 270 269 269 268 268 268 268 267 265
188 190 196 199 202 211 219 226 234 244 255 265 271 274 278 282 286 287 288 288 287 286 284 282 280 277 274 273 274 274 274 274 274 272 271 270 269 268 267 267 268 267
186 188 193 198 205 215 219 224 236 250 261 267 270 274 280 283 285 289 291 292 291 289 287 285 282 279 277 274 273 273 274 274 273 273 274 275 275 274 272 269 267 267
186 190 195 202 210 213 216 230 246 256 263 268 273 278 281 283 287 292 294 293 292 290 288 286 283 282 281 280 278 278 278 277 274 272 271 271 272 275 277 276 272 269
187 192 199 206 211 214 224 241 252 258 264 270 274 279 282 286 292 295 293 292 291 290 288 286 286 285 283 283 283 283 283 282 280 277 272 268 266 266 270 274 274 273
188 194 203 207 211 222 235 247 255 259 264 270 275 280 285 290 295 295 294 293 291 289 288 287 287 286 285 285 286 286 286 286 285 282 276 271 268 264 264 266 269 271
188 194 203 209 218 231 241 249 256 261 267 273 278 284 291 297 298 297 295 293 291 289 287 286 284 284 285 285 285 284 284 285 286 284 280 275 272 268 265 264 265 266
190 198 205 215 228 239 246 253 260 264 269 276 282 291 300 302 301 299 295 292 291 290 288 285 283 283 285 286 285 285 284 283 281 281 279 276 273 270 267 265 264 263
195 204 214 225 237 245 250 256 261 267 273 282 292 300 303 302 301 299 296 295 294 293 291 289 288 288 289 290 290 291 291 287 281 277 276 275 273 271 269 266 264 262
208 219 227 235 242 250 257 261 268 278 288 298 306 309 306 305 303 300 299 298 296 294 293 292 292 293 293 292 293 294 294 292 285 279 276 273 272 271 269 267 264 261
216 231 239 246 253 260 271 280 287 295 299 302 307 312 312 311 308 303 299 298 297 296 296 295 295 295 295 294 294 294 293 291 287 281 277 273 271 271 269 267 264 261
219 236 244 255 265 275 287 295 298 298 297 300 308 318 319 315 312 306 301 300 299 299 298 297 296 295 295 294 294 294 294 292 287 280 275 273 271 270 268 265 263 261
226 235 244 259 275 290 295 296 298 296 298 307 315 319 318 315 312 307 303 302 301 300 299 297 296 296 295 295 294 294 294 293 289 280 273 271 269 267 265 262 260 259
Height
796 797 797 798 799 800 801 801 802 803 803 804 804 805 805 806 806 806 806 806 806 805 805 805 804 803 802 802 802 801 801 800 800 800 800 799 799 798 797 797 797 797
795 795 797 797 798 799 800 800 801 801 802 803 803 803 804 804 804 804 804 804 804 804 804 803 803 802 801 801 800 799 799 798 798 798 798 797 797 796 795 795 795 794
793 794 795 796 797 798 799 799 800 800 801 801 801 802 802 803 803 803 803 803 803 802 802 802 801 801 800 800 799 798 798 797 796 796 796 795 795 794 793 793 792 791
792 793 794 795 796 797 797 798 798 799 799 800 800 800 801 801 801 801 801 801 801 801 800 800 800 799 799 798 798 797 796 796 795 795 794 793 792 792 791 790 790 789
790 792 793 794 795 796 796 796 797 798 798 798 799 799 799 799 799 799 799 799 799 799 799 798 798 798 798 797 797 796 795 795 794 793 792 791 790 789 789 788 787 787
789 790 791 792 793 794 795 795 796 796 797 797 797 798 797 797 797 797 797 797 797 797 797 797 797 796 796 796 795 795 794 793 792 792 791 789 788 787 787 786 785 784
787 788 790 791 792 793 793 794 795 795 796 796 796 796 796 796 796 795 795 795 795 795 795 795 795 795 794 794 794 793 793 792 791 791 790 788 787 786 785 784 783 782
785 786 788 789 790 791 792 793 794 794 795 795 795 795 795 795 795 794 794 793 793 793 793 793 793 793 793 792 792 792 791 791 790 789 788 787 786 784 783 782 781 780
783 785 786 788 789 790 791 792 792 793 793 793 793 794 794 793 793 793 793 792 791 791 791 791 791 791 791 790 790 790 789 789 788 787 787 785 784 783 782 781 780 778
781 783 785 786 787 789 790 790 791 791 792 792 792 792 792 792 792 791 791 790 790 789 789 789 789 788 789 788 788 788 787 786 786 785 784 783 782 782 781 780 778 776
779 781 783 784 786 787 788 789 790 790 790 791 791 791 790 790 790 789 789 788 788 787 787 787 787 786 786 786 786 785 785 784 783 783 782 781 780 779 779 778 776 775
777 779 781 782 784 785 786 787 788 789 789 789 789 789 789 788 788 788 787 786 786 785 785 784 784 784 784 783 783 783 782 781 781 780 779 779 778 777 776 775 774 773
775 777 779 780 782 783 785 786 787 787 788 788 788 787 787 787 786 785 785 784 783 783 783 782 782 782 782 781 781 780 779 779 778 777 777 776 775 774 773 772 771 770
773 775 777 779 780 782 783 784 785 786 786 786 786 785 785 785 784 783 782 782 781 781 781 780 780 779 779 779 778 778 777 776 775 775 774 773 772 771 770 769 768 767
771 774 775 777 779 780 781 782 783 784 784 784 783 783 783 782 782 781 780 780 779 779 778 778 777 777 776 776 776 776 775 774 773 772 771 770 769 768 767 766 765 764
770 772 774 775 777 778 779 780 781 781 781 781 781 780 780 780 779 779 778 778 778 777 776 775 775 774 774 774 774 773 773 772 771 769 769 768 766 765 764 762 761 760
769 771 772 774 775 776 777 778 778 779 778 778 778 778 778 777 777 777 776 776 776 775 774 773 772 772 771 771 771 771 770 769 768 767 766 765 764 762 761 759 758 757
767 769 770 772 773 774 775 776 776 776 776 776 775 775 775 774 774 774 774 774 774 773 772 771 770 769 769 769 768 768 768 766 765 763 762 761 760 759 758 757 756 754
766 767 769 770 771 772 773 773 774 773 773 773 773 773 772 771 771 772 772 772 771 770 769 768 767 767 766 766 765 765 764 763 761 760 758 756 756 755 754 753 753 751
765 766 768 769 770 771 771 771 771 771 771 771 771 770 770 769 769 769 769 769 768 767 766 765 764 764 763 763 762 762 761 760 758 756 754 752 751 751 749 749 748 748
764 765 767 768 768 769 769 769 770 769 769 769 768 768 767 767 767 767 767 767 766 765 763 761 761 761 760 760 759 758 758 756 754 752 750 748 747 746 745 744 743 743
764 765 765 766 767 767 767 768 768 767 767 767 766 766 765 765 765 765 765 764 763 762 761 759 758 758 757 756 755 754 753 752 750 748 746 743 741 741 740 739 738 738
763 764 764 765 765 765 766 766 766 766 766 765 764 764 764 764 764 763 763 762 761 760 758 756 755 754 754 753 752 751 750 747 746 744 741 738 736 735 735 733 732 732
762 763 763 763 764 764 764 764 764 764 764 764 763 763 763 763 762 761 761 760 759 758 756 754 752 751 751 750 748 748 746 744 741 739 736 733 731 730 729 727 726 725
761 762 762 762 763 763 763 763 763 763 763 763 762 762 762 762 761 760 759 758 757 756 754 752 750 748 748 747 745 744 743 740 737 734 730 728 726 724 722 721 720 719
760 761 761 761 761 761 762 762 762 762 762 761 761 761 761 760 760 759 758 756 755 754 752 750 748 745 744 743 741 740 739 736 733 729 725 722 721 719 716 714 713 712